Theta_e
326 324 326 328 339 339 339 341 339 335 330 336 329 324 323 320 317 319 317 314 314 312 310 309 308 308 309 307 309 307 308 309 308 309 306 305 303 302 302 302 303 303 302
324 325 326 326 338 336 338 341 340 336 334 331 331 323 318 318 318 316 315 312 309 308 307 305 304 306 306 307 305 306 308 307 308 306 305 304 302 301 302 302 303 303 301
325 324 326 328 335 335 336 339 334 328 324 325 322 319 319 318 316 314 311 308 306 304 302 301 303 305 305 306 306 305 305 307 305 305 304 302 301 301 302 302 303 303 301
325 324 330 332 333 334 335 332 326 322 320 318 320 319 317 314 312 310 307 304 302 302 301 303 303 304 305 306 304 305 306 305 305 304 302 301 301 301 302 302 303 302 301
321 329 329 329 330 330 329 325 322 320 319 318 316 316 313 312 310 307 304 303 302 299 298 302 304 305 304 304 304 305 305 305 304 303 300 301 301 301 302 302 302 300 300
322 327 329 325 327 324 323 322 319 317 316 315 315 313 310 308 307 307 306 305 302 300 299 301 303 305 306 305 304 305 304 303 302 301 299 300 300 301 302 302 302 300 299
323 326 326 325 323 318 315 312 310 309 311 311 309 309 307 307 306 305 304 302 300 297 297 301 302 303 305 305 305 304 304 302 301 300 299 300 301 301 302 303 304 301 300
324 324 326 321 313 310 308 307 306 306 306 305 305 307 305 303 304 303 301 297 296 297 298 300 301 303 304 306 305 304 303 302 301 300 300 301 302 303 303 304 304 304 302
323 317 315 311 309 308 306 305 304 304 304 303 303 302 301 298 297 295 296 298 299 299 300 301 302 302 303 304 303 303 303 303 301 301 300 299 301 305 306 306 304 304 302
320 314 310 308 306 305 304 303 302 302 301 301 300 300 302 301 300 297 296 299 299 299 300 300 300 301 302 303 303 303 302 301 301 302 302 302 305 306 307 307 306 304 302
313 309 307 306 304 302 301 301 301 299 298 299 299 300 300 302 303 301 298 299 299 299 299 300 300 300 301 301 301 301 301 301 302 302 303 304 306 306 307 307 306 301 301
309 307 306 304 302 300 299 297 297 297 298 298 298 298 299 300 301 299 300 301 300 299 300 301 300 299 299 300 300 301 301 302 301 302 303 303 304 305 306 307 306 300 300
308 306 304 302 300 299 298 296 296 296 297 297 297 295 296 298 300 300 300 300 301 301 301 300 300 300 300 301 302 301 301 300 300 301 302 303 304 305 305 305 306 303 301
306 304 303 301 299 298 297 297 296 296 296 295 295 296 297 298 298 299 299 301 302 301 300 301 301 301 301 301 301 300 300 300 300 302 302 304 304 304 304 305 305 304 302
305 303 302 300 298 297 297 296 296 295 295 296 297 298 298 299 299 299 303 302 301 301 301 301 300 301 301 301 301 302 303 303 302 302 303 303 303 304 304 304 303 303 303
302 300 298 297 296 296 295 296 297 298 299 300 298 298 298 298 301 302 302 302 302 302 300 300 300 301 301 301 301 302 303 303 303 303 303 303 303 303 303 303 304 303 304
300 298 296 297 296 295 293 292 292 297 298 297 297 298 299 302 302 302 302 301 301 301 301 301 301 301 301 301 301 302 302 303 302 301 302 303 303 302 302 303 303 303 303
297 297 297 296 296 293 292 292 293 294 294 295 298 299 301 302 303 302 301 300 300 301 301 302 301 301 301 300 301 301 302 302 302 301 301 302 302 301 301 302 304 304 303
296 295 295 295 292 292 292 293 293 293 294 295 296 298 299 300 301 302 302 301 301 300 299 298 299 299 300 300 300 301 301 301 302 302 301 301 302 302 301 300 303 304 303
294 294 294 292 292 292 293 293 293 293 295 296 297 297 298 299 299 299 299 299 297 295 295 294 295 297 299 299 299 299 300 301 301 302 302 301 301 300 300 301 301 303 303
296 295 292 292 292 293 294 294 295 296 297 297 297 297 296 296 296 296 295 295 294 293 293 293 293 294 296 298 298 299 300 300 300 301 301 301 301 301 300 302 303 303 302
295 293 292 293 293 294 295 296 296 296 296 296 296 296 296 295 294 294 293 293 292 292 292 292 292 292 292 293 297 298 299 299 299 300 300 300 300 300 300 301 301 303 302
294 293 293 294 295 296 295 295 295 295 296 296 296 295 295 294 293 292 291 291 291 291 290 291 291 291 292 293 294 295 296 297 297 298 299 299 299 299 299 300 301 300 300
294 295 296 295 295 295 295 295 295 296 296 295 296 295 295 295 294 293 292 290 290 290 290 290 291 291 292 293 293 292 292 295 296 298 298 299 298 298 298 299 300 299 299
296 295 295 294 295 295 296 295 295 295 295 295 295 295 294 294 292 291 290 289 289 289 290 290 291 291 292 292 292 293 293 292 294 296 297 297 298 297 296 299 299 298 298
295 295 295 296 296 296 295 295 295 295 295 295 295 294 294 293 292 291 290 289 288 288 289 290 291 291 292 292 292 292 293 292 292 291 292 296 296 296 296 297 297 297 296
Wind_Speed
10 13 16 13 15 14 14 10 11 24 27 42 33 33 34 29 26 26 29 27 27 25 23 20 21 16 19 19 19 16 16 14 2 11 18 22 27 25 25 24 21 22 20
14 17 17 17 14 11 8 5 22 25 23 26 35 33 33 34 30 30 29 30 29 25 23 21 20 18 21 20 19 19 19 18 13 11 19 24 26 25 21 23 24 21 21
19 17 25 27 8 9 6 16 22 25 24 35 39 38 30 34 31 29 30 30 29 27 25 25 23 21 21 20 20 19 19 22 22 19 18 21 24 23 22 25 25 19 19
27 16 17 10 9 8 11 18 25 31 30 18 33 33 35 34 35 33 29 29 30 29 25 26 23 22 20 17 20 21 21 21 17 19 18 16 17 20 20 20 21 20 14
28 13 12 16 16 18 21 29 30 36 35 30 32 24 19 32 30 33 31 31 35 31 24 19 18 17 14 11 20 22 19 15 16 18 18 14 15 13 17 18 14 21 16
26 10 15 17 25 28 35 34 35 38 44 42 32 34 26 20 25 29 29 34 33 27 24 22 16 15 16 14 19 23 19 19 19 18 16 8 16 18 21 22 14 13 9
27 5 19 27 27 26 37 34 34 34 45 43 40 42 37 26 24 25 28 32 30 26 24 22 21 20 20 19 17 20 17 21 20 18 15 14 15 18 20 19 22 11 17
10 12 23 30 33 33 36 37 36 38 45 43 40 43 32 23 19 22 27 32 32 30 28 24 22 21 21 22 20 18 17 21 19 16 16 15 14 16 21 21 20 18 11
14 20 27 32 35 36 35 34 33 40 41 44 41 40 33 23 23 26 34 37 38 34 31 29 26 25 19 16 19 21 13 12 12 12 13 10 9 13 18 20 19 19 6
24 27 27 31 37 36 34 34 35 36 35 48 42 35 28 22 19 24 30 33 32 30 31 30 28 26 26 26 22 18 19 14 14 16 13 12 14 17 18 17 16 19 14
31 35 32 35 38 38 39 38 38 31 31 45 42 28 19 16 19 18 22 27 27 27 28 31 28 25 24 22 22 20 16 13 17 18 18 19 19 21 22 17 13 16 18
36 36 34 34 37 39 39 38 35 35 38 38 38 32 26 25 24 22 25 27 23 27 29 28 25 24 22 22 22 21 19 16 16 18 21 22 25 26 24 17 12 18 27
38 36 35 34 36 38 44 38 32 31 33 31 32 27 29 32 34 30 26 24 31 35 27 23 22 26 29 29 27 25 23 22 19 19 18 20 21 21 22 19 11 10 15
37 35 34 38 36 33 33 33 30 29 31 23 25 26 30 29 24 20 19 24 33 28 27 29 36 37 35 32 30 27 25 25 24 19 18 21 24 26 25 22 17 16 7
37 34 34 36 35 35 33 28 27 25 26 29 26 28 25 22 18 19 33 31 30 31 33 34 33 33 32 30 28 27 25 24 24 24 24 24 25 27 25 19 23 27 25
36 32 35 35 34 33 39 37 22 21 24 27 28 29 27 26 34 32 30 32 32 33 35 30 28 27 26 24 27 29 29 28 25 21 23 24 26 27 25 25 21 25 23
39 36 34 35 35 34 34 28 29 33 31 34 33 31 32 39 35 34 33 33 35 35 34 29 27 25 24 25 28 31 32 30 26 27 26 24 25 29 29 23 22 22 23
40 38 36 36 37 33 25 30 35 35 32 34 33 36 35 36 34 33 32 33 29 26 24 23 24 25 27 27 30 32 32 32 29 28 31 27 24 27 27 22 17 18 20
41 37 37 41 31 30 32 37 34 31 34 31 27 30 33 31 31 29 26 29 25 23 28 29 27 26 24 24 28 30 30 32 32 29 31 32 28 24 28 26 19 16 22
38 40 45 35 32 35 35 33 31 31 30 27 28 34 34 35 33 30 30 29 30 31 30 29 25 23 21 21 24 27 30 32 33 32 29 29 29 29 29 27 24 18 22
46 43 33 33 35 36 34 31 29 28 26 29 31 31 34 36 35 33 33 32 31 31 29 28 27 24 19 18 23 27 29 30 31 32 31 30 29 28 27 31 29 28 26
43 32 33 35 36 33 33 29 26 28 31 33 36 32 34 36 34 33 31 31 29 28 26 24 23 23 27 28 26 26 28 29 29 28 30 31 29 30 30 27 28 27 23
33 36 36 35 29 32 31 31 31 33 31 30 32 34 35 33 33 30 28 25 25 23 23 26 27 28 28 29 28 27 27 27 27 27 28 29 28 29 30 28 24 27 25
40 34 33 34 34 32 32 33 33 32 31 32 34 34 32 33 32 28 27 26 24 25 29 30 30 29 28 29 30 27 28 23 26 26 26 28 29 30 31 28 27 23 23
37 37 35 36 35 32 32 32 31 30 32 34 35 32 33 32 29 28 26 24 25 27 27 27 28 29 29 29 27 27 26 31 25 27 27 28 29 30 33 29 26 26 25
35 37 35 34 31 31 32 32 32 32 34 35 33 31 30 30 28 25 23 24 26 26 25 26 26 27 28 28 27 28 25 27 30 33 25 29 30 30 32 29 29 25 25
Wind_Direction
315 330 325 303 268 286 300 305 170 154 132 149 147 146 141 141 139 136 126 119 116 114 108 104 98 96 82 74 71 57 51 34 78 61 40 29 19 21 21 23 23 12 12
338 343 327 323 261 294 294 240 179 172 177 175 154 152 146 146 145 137 124 129 121 110 102 96 88 88 80 72 67 57 53 48 50 66 30 24 23 21 19 15 20 18 15
329 328 330 330 256 290 275 174 151 142 140 152 144 142 149 140 136 130 132 123 117 109 102 92 90 84 77 72 66 58 61 57 58 52 34 28 24 19 13 23 20 10 9
332 305 344 46 54 70 124 126 124 128 127 121 136 138 140 132 128 130 126 119 110 99 98 94 88 83 76 76 71 69 63 58 52 48 42 32 20 14 18 11 9 8 2
331 336 90 89 100 119 119 111 106 114 115 107 109 96 102 125 131 129 121 115 98 92 88 95 89 86 85 85 81 72 64 60 57 55 47 35 24 9 360 358 9 11 31
323 317 126 118 120 117 120 123 118 115 117 121 111 108 95 96 120 122 119 106 100 96 88 83 102 89 78 109 94 70 62 63 60 68 63 29 20 3 359 348 350 10 21
328 248 131 120 108 110 115 113 107 105 114 113 113 113 104 107 114 113 111 106 100 91 89 89 78 80 78 101 93 83 75 58 64 70 69 49 30 13 11 356 358 12 31
345 107 126 124 114 109 106 107 108 106 105 105 103 107 103 104 116 115 102 95 93 89 85 85 84 79 75 101 89 88 76 58 60 62 66 64 39 20 17 17 12 17 35
138 116 124 119 115 112 109 111 113 111 108 103 105 103 106 107 107 105 101 95 88 88 85 80 80 74 79 91 88 82 83 58 49 66 67 54 40 37 33 27 17 13 2
128 119 118 116 115 113 114 112 111 110 111 111 107 107 114 120 117 109 100 101 98 92 84 78 73 74 75 78 82 80 73 55 63 73 69 62 54 43 39 30 26 19 12
119 119 118 116 116 117 115 114 115 112 108 107 109 113 117 147 150 123 99 103 101 96 86 80 74 71 75 78 79 74 71 70 66 68 59 49 47 41 35 43 47 44 35
121 119 119 119 116 116 112 108 111 113 106 101 106 108 115 120 131 125 108 101 98 104 96 79 68 68 74 75 77 74 69 68 66 61 49 37 29 23 29 45 63 70 64
119 120 118 116 116 118 117 115 111 111 110 111 114 114 114 115 112 111 106 99 94 97 95 88 78 78 76 75 73 74 70 62 62 61 42 33 32 27 28 46 56 78 70
120 119 121 116 113 111 112 113 114 117 120 124 121 119 118 115 115 113 99 100 105 97 91 88 86 80 76 72 67 64 58 55 57 58 43 39 46 44 38 31 44 48 93
119 120 119 117 115 113 110 115 131 133 126 124 122 124 123 118 109 105 109 103 102 99 101 95 79 69 64 62 57 52 46 43 41 42 42 42 36 33 41 51 55 60 58
119 121 119 118 113 112 117 122 127 123 127 123 120 123 120 110 109 101 105 106 106 105 93 81 71 63 55 52 50 48 42 38 38 39 35 31 23 25 28 50 71 65 57
124 123 119 117 115 116 116 118 107 114 117 119 118 114 109 110 102 105 103 105 99 90 84 78 71 66 60 61 54 47 39 40 49 44 39 39 35 38 42 62 76 71 61
122 120 118 118 121 122 121 115 110 113 114 118 115 111 107 110 114 102 100 100 92 82 83 83 81 73 64 60 52 49 41 39 45 47 46 45 42 49 48 55 68 61 64
119 116 118 120 119 121 116 112 116 117 120 119 119 110 106 107 103 106 102 90 85 78 81 75 72 65 62 56 52 53 49 40 41 43 47 50 49 43 42 51 69 77 76
112 117 119 118 120 116 117 120 119 118 117 115 105 104 111 109 98 94 89 86 84 81 77 71 69 69 68 58 54 52 51 46 43 42 43 48 51 47 44 46 51 78 78
120 119 122 122 120 118 122 119 118 119 117 111 109 108 108 100 93 86 84 83 82 79 77 72 67 67 73 67 57 53 52 49 47 46 48 50 51 48 47 49 55 82 75
122 123 124 121 120 123 123 126 128 120 112 111 108 108 104 97 94 91 90 88 88 87 85 86 79 71 65 63 61 59 56 52 49 52 52 53 54 53 50 54 52 73 73
126 127 123 122 129 127 121 119 117 115 110 106 106 103 101 99 95 94 92 94 94 97 96 91 82 75 70 66 65 62 59 55 54 57 58 58 57 56 51 56 62 63 69
128 127 123 120 121 119 119 116 117 119 115 111 110 111 113 107 101 102 98 95 96 96 90 84 79 74 73 70 67 64 61 64 65 66 62 61 59 58 56 62 62 65 64
122 122 122 122 125 128 126 125 122 118 115 115 114 114 109 110 112 108 106 106 102 97 93 87 82 78 74 72 71 70 65 60 65 69 67 67 64 62 58 68 62 66 69
122 123 126 131 128 123 122 122 124 122 116 116 117 118 119 119 117 120 122 111 100 99 97 91 87 83 78 74 71 72 75 69 65 65 68 67 65 65 63 62 60 69 72